SCOUT A DEB, 2994

Orbit data source: Space-Track

SCOUT A DEB, 2994 is space debris in LEO originally from a launch on Mon, 25 Sep 1967 UTC launched from the Air Force Western Test Range (AFWTR). Debris objects in space refer to the collection of defunct objects orbiting the Earth. Examples of debris include non-operational satellites, rocket bodies, and fragments generated from explosions, collisions, or faulty payload assembly.

Loading next visibility...
Identifier
2994, 1967-092C
Orbit
LEO
Country
Flag of USUS
Related business
Manufacturer
Unknown
Mission
Spacecraft
Bus & Motor
Unknown
Mass
Unknown
Launch date (UTC)
1967-09-25 (58 years ago)
Launch vehicle
Unknown
Launch site
Air Force Western Test Range (AFWTR)
Object type
Payload
Rocket body
Debris
Shape & HBR
Unknown
Radar Cross Section
Small (<0.1 m²)

Expand to show TLE details & history
Last TLE update: 19 hours ago

TLE from 19 hours ago
0 SCOUT A DEB
1 02994U 67092C   25258.01183117  .00000383  00000-0  25741-3 0  9998
2 02994  89.4440   2.0697 0088083 349.7039  10.2331 13.97143349936351
Epoch: 2025-09-15T00:17Z
TLE epoch observation values (Epoch: 2025-09-15T00:17:02.213Z)
Latitude
0.00003°
Longitude
3.58788°
Altitude
843.61 km
Speed
7.463 km/s
True Right ascension
00h 08m 16s
True Declination
0° 00' 00"
Sunlit
Object was in full shadow at epoch
Visualization orbit readout
Latitude
Unknown
Longitude
Unknown
Altitude
Unknown
Speed
Unknown
Apparent Right ascension
Unknown
Apparent Declination
Unknown
Sunlit
N/A
Visualization observer readout
Local Sidereal Time
12:22:07
Azimuth
Unknown
Elevation
Unknown
Doppler factor
Unknown
Orbital elements
Apogee altitude
964.8 km
Perigee altitude
836.572 km
Semi-major axis
7,278.823 km
Eccentricity
0.00881
Inclination
89.444°
RAAN
2.0697°
Arg. of periapsis
349.7039°
True anomaly
10.41438°
Mean anomaly
10.2331°
Eccentric anomaly
10.32354°
Mean motion
3.49503 °/min
Orbital period
103 mins
BSTAR
0.00025741
Loading maneuver chart data...
Computing Atmospheric mass density...
Loading historical data...
Loading historical data...
Loading historical data...
Loading historical data...
Loading historical data...
Loading historical data...
Loading historical data...

Documentation

Showing up to 5 results
|